Weather History for Big Piney, WY

Change the Weather History Date:

Tuesday, November 27, 2012

  Actual Average Record
Temperature  
Mean Temperature 21 °F 18 °F  
Max Temperature 41 °F 31 °F 48 °F (1999)
Min Temperature 1 °F 5 °F -14 °F (2003)
Degree Days  
Heating Degree Days 44 47  
Month to date heating degree days 933 1091  
Since 1 July heating degree days 2063 2671  
Cooling Degree Days 0 0  
Month to date cooling degree days 0 0  
Year to date cooling degree days 67 35  
Moisture  
Dew Point 8 °F    
Average Humidity 61    
Maximum Humidity 88    
Minimum Humidity 34    
Precipitation  
Precipitation 0.00 in 0.00 in 0.09 in (1990)
Month to date precipitation 0.15 0.19  
Year to date precipitation 2.65 6.16  
Sea Level Pressure  
Sea Level Pressure 30.41 in    
Wind  
Wind Speed 3 mph (ENE)    
Max Wind Speed 10 mph    
Max Gust Speed 12 mph    
Visibility 10 miles    
Events      
T = Trace of Precipitation, MM = Missing Value Source: NWS Daily Summary

Daily Weather History Graph

Daily Weather History Graph

Search for Another Location

Airport:

Trip Planner

Search our weather history database for the weather conditions in past years. The results will help you decide how hot, cold, wet, or windy it might be!

Date:

Astronomy

Nov. 27, 2012 Rise Set
Actual Time 7:26 AM MST 4:49 PM MST
Civil Twilight 6:55 AM MST 5:20 PM MST
Nautical Twilight 6:20 AM MST 5:55 PM MST
Astronomical Twilight 5:46 AM MST 6:29 PM MST
Moon 4:23 PM MST (11/27) 6:34 AM MST (11/27)
Length of Visible Light 10h 25m
Length of Day
9h 22m
Waxing Gibbous, 99% of the Moon is Illuminated
Nov 27
Waxing Gibbous
Nov 28
Full
Dec 6
Last Quarter
Dec 13
New
Dec 19
First Quarter

Hourly Weather History & Observations

Time (MST) Temp. Windchill Dew Point Humidity Pressure Visibility Wind Dir Wind Speed Gust Speed Precip Events Conditions
12:53 AM 8.1 °F -0.5 °F 3.9 °F 83% 30.37 in 10.0 mi East 4.6 mph - N/A   Clear
1:53 AM 6.1 °F -2.8 °F 3.0 °F 87% 30.37 in 10.0 mi ENE 4.6 mph - N/A   Clear
2:53 AM 8.1 °F -0.5 °F 3.9 °F 83% 30.36 in 10.0 mi NNW 4.6 mph - N/A   Clear
3:53 AM 6.1 °F - 1.0 °F 80% 30.35 in 10.0 mi Calm Calm - N/A   Clear
4:53 AM 6.1 °F - 1.0 °F 80% 30.38 in 10.0 mi Calm Calm - N/A   Clear
5:53 AM 3.0 °F -4.4 °F -0.9 °F 84% 30.44 in 10.0 mi East 3.5 mph - N/A   Clear
6:53 AM 3.9 °F -3.4 °F -0.9 °F 80% 30.47 in 10.0 mi ENE 3.5 mph - N/A   Clear
7:53 AM 1.9 °F - -2.0 °F 83% 30.50 in 10.0 mi Calm Calm - N/A   Clear
8:53 AM 12.0 °F 5.9 °F 6.1 °F 77% 30.48 in 10.0 mi ENE 3.5 mph - N/A   Clear
9:53 AM 18.0 °F - 12.0 °F 78% 30.45 in 10.0 mi Calm Calm - N/A   Clear
10:53 AM 25.0 °F 20.7 °F 16.0 °F 69% 30.45 in 10.0 mi SSW 3.5 mph - N/A   Clear
11:53 AM 30.9 °F 27.5 °F 12.9 °F 47% 30.41 in 10.0 mi Variable 3.5 mph - N/A   Clear
12:53 PM 37.0 °F 33.3 °F 16.0 °F 42% 30.36 in 10.0 mi South 4.6 mph - N/A   Clear
1:53 PM 39.9 °F 37.8 °F 15.1 °F 36% 30.35 in 10.0 mi SE 3.5 mph - N/A   Clear
2:53 PM 41.0 °F 39.0 °F 15.8 °F 36% 30.25 in 10.0 mi East 3.5 mph - N/A   Clear
3:53 PM 37.9 °F 33.5 °F 14.0 °F 38% 30.35 in 10.0 mi SE 5.8 mph - N/A   Clear
4:53 PM 33.1 °F 30.0 °F 12.0 °F 42% 30.38 in 10.0 mi East 3.5 mph - N/A   Clear
5:53 PM 25.0 °F 18.1 °F 12.0 °F 58% 30.44 in 10.0 mi NE 5.8 mph - N/A   Clear
6:53 PM 19.0 °F 13.9 °F 10.9 °F 71% 30.47 in 10.0 mi WNW 3.5 mph - N/A   Clear
7:53 PM 19.0 °F 7.5 °F 10.9 °F 71% 30.49 in 10.0 mi North 10.4 mph - N/A   Clear
8:53 PM 17.1 °F - 10.0 °F 74% 30.44 in 10.0 mi Calm Calm - N/A   Clear
9:53 PM 14.0 °F 5.1 °F 9.0 °F 80% 30.44 in 10.0 mi North 5.8 mph - N/A   Clear
10:53 PM 15.1 °F - 10.0 °F 80% 30.40 in 10.0 mi Calm Calm - N/A   Clear
11:53 PM 15.1 °F - 10.0 °F 80% 30.38 in 10.0 mi Calm Calm - N/A   Clear